Malaga, Spain

5:28 PM CEST on September 24, 2017 (GMT +0200)
Malaga

Weather History for LEMG - December, 2012

Change the Weather History Date:

Friday, December 28, 2012

  Actual Average Record
Temperature  
Mean Temperature 50 °F -  
Max Temperature 63 °F 59 °F 67 °F (2015)
Min Temperature 37 °F 43 °F 37 °F (2012)
Degree Days  
Heating Degree Days 15    
Moisture  
Dew Point 41 °F    
Average Humidity 81    
Maximum Humidity 93    
Minimum Humidity 40    
Precipitation  
Precipitation 0.00 in 0.11 in - ()
Sea Level Pressure  
Sea Level Pressure 30.46 in    
Wind  
Wind Speed 6 mph ()    
Max Wind Speed 10 mph    
Max Gust Speed -    
Visibility 10.0 miles    
Events      
Averages and records for this station are not official NWS values.
T = Trace of Precipitation, MM = Missing Value Source: Averaged Metar Reports

Daily Weather History Graph

Daily Weather History Graph

Search for Another Location

Airport or City:

Trip Planner

Search our weather history database for the weather conditions in past years. The results will help you decide how hot, cold, wet, or windy it might be!

Date:

Astronomy

Dec. 28, 2012 Rise Set
Actual Time 8:29 AM CET 6:09 PM CET
Civil Twilight 8:00 AM CET 6:38 PM CET
Nautical Twilight 7:28 AM CET 7:11 PM CET
Astronomical Twilight 6:56 AM CET 7:42 PM CET
Moon 6:32 PM CET (12/28) 8:15 AM CET (12/28)
Length of Visible Light 10h 38m
Length of Day
9h 40m
Full, 100% of the Moon is Illuminated
Dec 28
Full
Jan 5
Last Quarter
Jan 11
New
Jan 19
First Quarter
Jan 27
Full

Hourly Weather History & Observations

Time (CET) Temp. Windchill Dew Point Humidity Pressure Visibility Wind Dir Wind Speed Gust Speed Precip Events Conditions
12:00 AM 44.6 °F 39.7 °F 41.0 °F 87% 30.48 in - WNW 9.2 mph - N/A   Clear
12:30 AM 44.6 °F 40.7 °F 41.0 °F 87% 30.48 in - WNW 6.9 mph - N/A   Clear
1:00 AM 45 °F - 41 °F 79% 30.49 in 9 mi WNW 8.1 mph - -  
1:00 AM 42.8 °F 38.0 °F 41.0 °F 93% 30.48 in - WNW 8.1 mph - N/A   Clear
1:30 AM 42.8 °F 38.0 °F 41.0 °F 93% 30.48 in - WNW 8.1 mph - N/A   Clear
2:00 AM 42.8 °F 38.0 °F 39.2 °F 87% 30.48 in - WNW 8.1 mph - N/A   Clear
2:30 AM 41.0 °F 36.4 °F 39.2 °F 93% 30.48 in - WNW 6.9 mph - N/A   Clear
3:00 AM 41.0 °F 35.8 °F 39.2 °F 93% 30.45 in - WNW 8.1 mph - N/A   Clear
3:30 AM 41.0 °F 34.7 °F 39.2 °F 93% 30.45 in - WNW 10.4 mph - N/A   Clear
4:00 AM 41.0 °F 35.8 °F 39.2 °F 93% 30.45 in - WNW 8.1 mph - N/A   Clear
4:30 AM 41.0 °F 35.2 °F 37.4 °F 87% 30.45 in - WNW 9.2 mph - N/A   Clear
5:00 AM 39.2 °F 33.6 °F 37.4 °F 93% 30.45 in - WNW 8.1 mph - N/A   Clear
5:30 AM 39.2 °F 33.0 °F 37.4 °F 93% 30.45 in - WNW 9.2 mph - N/A   Clear
6:00 AM 39.2 °F 32.5 °F 37.4 °F 93% 30.45 in - WNW 10.4 mph - N/A   Clear
6:30 AM 39.2 °F 33.0 °F 37.4 °F 93% 30.45 in - WNW 9.2 mph - N/A   Clear
7:00 AM 40 °F - 37 °F 83% 30.48 in 9 mi WNW 9.2 mph - -  
7:00 AM 39.2 °F 33.0 °F 35.6 °F 87% 30.45 in - WNW 9.2 mph - N/A   Clear
7:30 AM 37.4 °F 31.4 °F 35.6 °F 93% 30.45 in - WNW 8.1 mph - N/A   Clear
8:00 AM 37.4 °F 30.3 °F 35.6 °F 93% 30.48 in - WNW 10.4 mph - N/A   Clear
8:30 AM 37.4 °F 30.3 °F 35.6 °F 93% 30.48 in - WNW 10.4 mph - N/A   Clear
9:00 AM 37.4 °F 30.8 °F 35.6 °F 93% 30.48 in - WNW 9.2 mph - N/A   Clear
9:30 AM 39.2 °F 33.0 °F 35.6 °F 87% 30.48 in - WNW 9.2 mph - N/A   Clear
10:00 AM 41.0 °F 35.2 °F 37.4 °F 87% 30.48 in - WNW 9.2 mph - N/A   Clear
10:30 AM 42.8 °F 38.0 °F 39.2 °F 87% 30.51 in - WNW 8.1 mph - N/A   Clear
11:00 AM 46.4 °F 43.5 °F 41.0 °F 81% 30.51 in - NW 5.8 mph - N/A   Clear
11:30 AM 50.0 °F - 42.8 °F 76% 30.51 in - WNW 5.8 mph - N/A   Clear
12:00 PM 51.8 °F - 42.8 °F 71% 30.51 in - WNW 4.6 mph - N/A   Clear
12:30 PM 55.4 °F - 42.8 °F 63% 30.48 in - WNW 3.5 mph - N/A   Clear
1:00 PM 58 °F - 40 °F 40% 30.49 in 25 mi 2.3 mph - -  
1:00 PM 59.0 °F - 42.8 °F 55% 30.48 in - Variable 2.3 mph - N/A   Clear
2:00 PM 62.6 °F - 41.0 °F 45% 30.45 in - East 1.2 mph - N/A   Clear
2:30 PM 62.6 °F - 44.6 °F 52% 30.42 in - SE 3.5 mph - N/A   Clear
3:00 PM 60.8 °F - 44.6 °F 55% 30.42 in - SE 5.8 mph - N/A   Clear
3:30 PM 60.8 °F - 46.4 °F 59% 30.42 in - SSE 5.8 mph - N/A   Clear
4:00 PM 59.0 °F - 46.4 °F 63% 30.42 in - SE 5.8 mph - N/A   Clear
4:30 PM 59.0 °F - 46.4 °F 63% 30.42 in - SE 4.6 mph - N/A   Clear
5:00 PM 59.0 °F - 46.4 °F 63% 30.42 in - SE 4.6 mph - N/A   Clear
5:30 PM 57.2 °F - 50.0 °F 77% 30.42 in - ESE 4.6 mph - N/A   Clear
6:00 PM 53.6 °F - 48.2 °F 82% 30.42 in - ESE 3.5 mph - N/A   Clear
6:30 PM 51.8 °F - 48.2 °F 88% 30.42 in - SE 1.2 mph - N/A   Clear
7:00 PM 51 °F - 46 °F 78% 30.44 in 12 mi SE 1.2 mph - -  
7:00 PM 51.8 °F - 46.4 °F 82% 30.42 in - SE 1.2 mph - N/A   Clear
7:30 PM 50.0 °F - 46.4 °F 87% 30.45 in - Calm Calm - N/A   Clear
8:00 PM 50.0 °F - 46.4 °F 87% 30.45 in - Calm Calm - N/A   Clear
8:30 PM 46.4 °F - 42.8 °F 87% 30.45 in - NW 1.2 mph - N/A   Clear
9:00 PM 42.8 °F - 39.2 °F 87% 30.45 in - NW 2.3 mph - N/A   Clear
9:30 PM 44.6 °F 43.1 °F 41.0 °F 87% 30.45 in - WNW 3.5 mph - N/A   Clear
10:00 PM 42.8 °F - 39.2 °F 87% 30.45 in - NW 2.3 mph - N/A   Clear
10:30 PM 42.8 °F 38.0 °F 39.2 °F 87% 30.45 in - WNW 8.1 mph - N/A   Clear
11:00 PM 44.6 °F 39.2 °F 41.0 °F 87% 30.45 in - WNW 10.4 mph - N/A   Clear
11:30 PM 42.8 °F 37.0 °F 41.0 °F 93% 30.45 in - WNW 10.4 mph - N/A   Clear